Location: Shepherdstown, WV
(39.4326°N, 77.8042°W)
Time: 15:00:39
(UTC-04:00)

Tiros 1 despin weight - Pass Details

Date: 09 August 2021
Orbit: 593 x 641 km, 48.2° (Epoch: 18 September)

Event Time Altitude Azimuth Distance (km) Brightness Sun altitude
Rises 10:27:28 0° 219° (SW) 2,874 ? 46.2°
Reaches altitude 10° 10:29:49 10° 213° (SSW) 1,979 ? 46.6°
Maximum altitude 10:34:10 45° 141° (SE) 849 ? 47.4°
Drops below altitude 10° 10:38:36 10° 68° (ENE) 2,015 ? 48.2°
Sets 10:41:00 0° 63° (ENE) 2,932 ? 48.6°
